,,,PA_Meas_PMT16A,,PR_Meas_QMR101_102,,RH_Meas_QMH101,,SR_Meas_QMS101,,TA_Meas_QMH101,,GenWind,,GenWind,
date,time,status,PA,status,PR,status,RH,status,SR,status,TA,status,DirAvg,status,SpdAvg,
2009-10-02, 00:00:05,VALID,1009.87,VALID,0,VALID,93.6671,VALID,0,VALID,23.3823,VALID,63,VALID,0,
2009-10-02, 00:01:05,VALID,1009.85,VALID,0,VALID,93.6671,VALID,0,VALID,23.384,VALID,63,VALID,0,
2009-10-02, 00:02:05,VALID,1009.86,VALID,0,VALID,93.6748,VALID,0,VALID,23.384,VALID,63,VALID,0,
2009-10-02, 00:03:05,VALID,1009.81,VALID,0,VALID,93.6671,VALID,0,VALID,23.3628,VALID,129,VALID,0,
2009-10-02, 00:04:05,VALID,1009.8,VALID,0,VALID,93.6824,VALID,0,VALID,23.3628,VALID,129,VALID,0,
2009-10-02, 00:05:05,VALID,1009.75,VALID,0,VALID,93.6824,VALID,0,VALID,23.3645,VALID,128,VALID,0.438281,
2009-10-02, 00:06:05,VALID,1009.74,VALID,0,VALID,93.6824,VALID,0,VALID,23.3238,VALID,124,VALID,0.256641,
2009-10-02, 00:07:05,VALID,1009.71,VALID,0,VALID,93.6824,VALID,0,VALID,23.3433,VALID,123,VALID,0.435156,
2009-10-02, 00:08:05,VALID,1009.65,VALID,0,VALID,93.6824,VALID,0,VALID,23.3451,VALID,127,VALID,0.5,
2009-10-02, 00:09:05,VALID,1009.63,VALID,0,VALID,93.6824,VALID,0,VALID,23.3238,VALID,127,VALID,0.448828,
2009-10-02, 00:10:05,VALID,1009.6,VALID,0,VALID,93.69,VALID,0,VALID,23.3238,VALID,52,VALID,0.54375,
2009-10-02, 00:11:05,VALID,1009.57,VALID,0,VALID,93.7053,VALID,0,VALID,23.3433,VALID,58,VALID,0.439453,
2009-10-02, 00:12:05,VALID,1009.57,VALID,0,VALID,93.7205,VALID,0,VALID,23.3238,VALID,44,VALID,0.559766,
2009-10-02, 00:13:05,VALID,1009.5,VALID,0,VALID,93.7205,VALID,0,VALID,23.3256,VALID,30,VALID,0.383203,
2009-10-02, 00:14:05,VALID,1009.53,VALID,0,VALID,93.7281,VALID,0,VALID,23.3043,VALID,30,VALID,0.221484,
2009-10-02, 00:15:05,VALID,1009.5,VALID,0,VALID,93.7663,VALID,0,VALID,23.3043,VALID,30,VALID,0.505078,
2009-10-02, 00:16:05,VALID,1009.49,VALID,0,VALID,93.7586,VALID,0,VALID,23.2866,VALID,30,VALID,0.272656,
2009-10-02, 00:17:05,VALID,1009.49,VALID,0,VALID,93.7739,VALID,0,VALID,23.2866,VALID,30,VALID,0,
2009-10-02, 00:18:05,VALID,1009.45,VALID,0,VALID,93.7968,VALID,0,VALID,23.2654,VALID,29,VALID,0,
2009-10-02, 00:19:05,VALID,1009.45,VALID,0,VALID,93.8044,VALID,0,VALID,23.2671,VALID,27,VALID,0,
2009-10-02, 00:20:05,VALID,1009.42,VALID,0,VALID,93.7968,VALID,0,VALID,23.2476,VALID,27,VALID,0,
2009-10-02, 00:21:05,VALID,1009.38,VALID,0,VALID,93.8044,VALID,0,VALID,23.2476,VALID,24,VALID,0,
2009-10-02, 00:22:05,VALID,1009.38,VALID,0,VALID,93.7968,VALID,0,VALID,23.2476,VALID,15,VALID,0,
2009-10-02, 00:23:05,VALID,1009.34,VALID,0,VALID,93.8273,VALID,0,VALID,23.2476,VALID,10,VALID,0,
2009-10-02, 00:24:05,VALID,1009.32,VALID,0,VALID,93.8502,VALID,0,VALID,23.2476,VALID,10,VALID,0,
2009-10-02, 00:25:05,VALID,1009.3,VALID,0,VALID,93.8502,VALID,0,VALID,23.2282,VALID,10,VALID,0,
2009-10-02, 00:26:05,VALID,1009.27,VALID,0,VALID,93.8578,VALID,0,VALID,23.2087,VALID,10,VALID,0,
2009-10-02, 00:27:05,VALID,1009.27,VALID,0,VALID,93.8807,VALID,0,VALID,23.2087,VALID,10,VALID,0,
2009-10-02, 00:28:05,VALID,1009.24,VALID,0,VALID,93.8654,VALID,0,VALID,23.1892,VALID,10,VALID,0,
2009-10-02, 00:29:05,VALID,1009.21,VALID,0,VALID,93.9035,VALID,0.105969,VALID,23.1857,VALID,9,VALID,0.308594,
2009-10-02, 00:30:05,VALID,1009.17,VALID,0,VALID,93.8959,VALID,0.105969,VALID,23.2069,VALID,4,VALID,0.308984,
2009-10-02, 00:31:05,VALID,1009.16,VALID,0,VALID,93.9188,VALID,0.105969,VALID,23.1874,VALID,351,VALID,0.267969,
2009-10-02, 00:32:05,VALID,1009.14,VALID,0,VALID,93.934,VALID,0,VALID,23.1679,VALID,333,VALID,0.284375,
2009-10-02, 00:33:05,VALID,1009.1,VALID,0,VALID,93.9264,VALID,0.105969,VALID,23.1662,VALID,333,VALID,0,
2009-10-02, 00:34:05,VALID,1009.07,VALID,0,VALID,93.9188,VALID,0,VALID,23.1662,VALID,333,VALID,0.00976563,
2009-10-02, 00:35:05,VALID,1009.03,VALID,0,VALID,93.9493,VALID,0.105969,VALID,23.2069,VALID,333,VALID,0.165234,
2009-10-02, 00:36:05,VALID,1009.02,VALID,0,VALID,93.9493,VALID,0,VALID,23.1874,VALID,333,VALID,0.0855469,
2009-10-02, 00:37:05,VALID,1008.99,VALID,0,VALID,93.9569,VALID,0.105969,VALID,23.1679,VALID,333,VALID,0.132422,
2009-10-02, 00:38:05,VALID,1008.94,VALID,0,VALID,93.9493,VALID,0.105969,VALID,23.1874,VALID,333,VALID,0.267188,
2009-10-02, 00:39:05,VALID,1008.94,VALID,0,VALID,93.9569,VALID,0.105969,VALID,23.1679,VALID,333,VALID,0.228906,
2009-10-02, 00:40:05,VALID,1008.93,VALID,0,VALID,93.9722,VALID,0,VALID,23.1679,VALID,333,VALID,0,
2009-10-02, 00:41:05,VALID,1008.91,VALID,0,VALID,93.9569,VALID,0.105969,VALID,23.1679,VALID,333,VALID,0.114063,
2009-10-02, 00:42:05,VALID,1008.9,VALID,0,VALID,93.9569,VALID,0,VALID,23.1679,VALID,333,VALID,0,
2009-10-02, 00:43:05,VALID,1008.89,VALID,0,VALID,93.9722,VALID,0.105969,VALID,23.1467,VALID,333,VALID,0,
2009-10-02, 00:44:05,VALID,1008.87,VALID,0,VALID,93.9645,VALID,0,VALID,23.1485,VALID,333,VALID,0,
2009-10-02, 00:45:05,VALID,1008.85,VALID,0,VALID,93.9645,VALID,0,VALID,23.1697,VALID,333,VALID,0,
2009-10-02, 00:46:05,VALID,1008.83,VALID,0,VALID,93.9798,VALID,0,VALID,23.1485,VALID,333,VALID,0.152734,
2009-10-02, 00:47:05,VALID,1008.78,VALID,0,VALID,94.0027,VALID,0,VALID,23.1697,VALID,333,VALID,0.0550781,
2009-10-02, 00:48:05,VALID,1008.76,VALID,0,VALID,93.9874,VALID,0,VALID,23.1697,VALID,333,VALID,0.147656,
2009-10-02, 00:49:05,VALID,1008.75,VALID,0,VALID,93.995,VALID,0,VALID,23.1697,VALID,333,VALID,0.0246094,
2009-10-02, 00:50:05,VALID,1008.69,VALID,0,VALID,93.9798,VALID,0,VALID,23.129,VALID,333,VALID,0,
2009-10-02, 00:51:05,VALID,1008.67,VALID,0,VALID,93.9798,VALID,0,VALID,23.1485,VALID,333,VALID,0,
2009-10-02, 00:52:05,VALID,1008.65,VALID,0,VALID,93.9874,VALID,0,VALID,23.1679,VALID,333,VALID,0,
2009-10-02, 00:53:05,VALID,1008.67,VALID,0,VALID,93.9874,VALID,0,VALID,23.1485,VALID,333,VALID,0,
2009-10-02, 00:54:05,VALID,1008.64,VALID,0,VALID,94.0103,VALID,0,VALID,23.129,VALID,333,VALID,0,
2009-10-02, 00:55:05,VALID,1008.68,VALID,0,VALID,94.0027,VALID,0,VALID,23.1485,VALID,333,VALID,0,
2009-10-02, 00:56:05,VALID,1008.66,VALID,0,VALID,94.0027,VALID,0,VALID,23.129,VALID,333,VALID,0,
2009-10-02, 00:57:05,VALID,1008.68,VALID,0,VALID,93.995,VALID,0,VALID,23.129,VALID,333,VALID,0,
2009-10-02, 00:58:05,VALID,1008.65,VALID,0,VALID,93.995,VALID,0,VALID,23.129,VALID,333,VALID,0,
2009-10-02, 00:59:05,VALID,1008.63,VALID,0,VALID,94.0103,VALID,0.105969,VALID,23.1467,VALID,333,VALID,0.0671875,
2009-10-02, 01:00:05,VALID,1008.59,VALID,0,VALID,94.0103,VALID,0,VALID,23.1485,VALID,333,VALID,0.409375,
2009-10-02, 01:01:05,VALID,1008.59,VALID,0,VALID,94.0103,VALID,0.105969,VALID,23.1467,VALID,333,VALID,0.372266,
2009-10-02, 01:02:05,VALID,1008.59,VALID,0,VALID,93.995,VALID,0.105969,VALID,23.1272,VALID,333,VALID,0.325,
2009-10-02, 01:03:05,VALID,1008.59,VALID,0,VALID,94.0027,VALID,0.105969,VALID,23.1272,VALID,333,VALID,0.212109,
2009-10-02, 01:04:05,VALID,1008.58,VALID,0,VALID,94.0103,VALID,0.105969,VALID,23.1272,VALID,333,VALID,0.252344,
2009-10-02, 01:05:05,VALID,1008.6,VALID,0,VALID,94.0179,VALID,0.105969,VALID,23.1272,VALID,333,VALID,0,
2009-10-02, 01:06:05,VALID,1008.57,VALID,0,VALID,94.0103,VALID,0.105969,VALID,23.1485,VALID,333,VALID,0,
2009-10-02, 01:07:05,VALID,1008.61,VALID,0,VALID,94.0179,VALID,0.105969,VALID,23.1485,VALID,333,VALID,0,
2009-10-02, 01:08:05,VALID,1008.58,VALID,0,VALID,94.0103,VALID,0,VALID,23.1485,VALID,333,VALID,0.497656,
2009-10-02, 01:09:05,VALID,1008.61,VALID,0,VALID,94.0103,VALID,0,VALID,23.1272,VALID,162,VALID,0.686328,
2009-10-02, 01:10:05,VALID,1008.63,VALID,0,VALID,94.0179,VALID,0.105969,VALID,23.1272,VALID,155,VALID,0.578906,
2009-10-02, 01:11:05,VALID,1008.63,VALID,0,VALID,94.0103,VALID,0.105969,VALID,23.1077,VALID,146,VALID,0.655469,
2009-10-02, 01:12:05,VALID,1008.63,VALID,0,VALID,94.0255,VALID,0,VALID,23.1272,VALID,128,VALID,0.807422,
2009-10-02, 01:13:05,VALID,1008.66,VALID,0,VALID,94.0179,VALID,0.105969,VALID,23.1485,VALID,119,VALID,0.893359,
2009-10-02, 01:14:05,VALID,1008.68,VALID,0,VALID,94.0255,VALID,0,VALID,23.1502,VALID,98,VALID,0.928516,
2009-10-02, 01:15:05,VALID,1008.7,VALID,0,VALID,94.0103,VALID,0,VALID,23.1679,VALID,112,VALID,0.625391,
2009-10-02, 01:16:05,VALID,1008.71,VALID,0,VALID,94.0179,VALID,0,VALID,23.1892,VALID,120,VALID,0.884766,
2009-10-02, 01:17:05,VALID,1008.76,VALID,0,VALID,94.0408,VALID,0,VALID,23.1485,VALID,109,VALID,0.653125,
2009-10-02, 01:18:05,VALID,1008.75,VALID,0,VALID,94.0408,VALID,0,VALID,23.1485,VALID,101,VALID,0.685156,
2009-10-02, 01:19:05,VALID,1008.75,VALID,0,VALID,94.0484,VALID,0,VALID,23.1892,VALID,96,VALID,0.824609,
2009-10-02, 01:20:05,VALID,1008.77,VALID,0,VALID,94.0408,VALID,0,VALID,23.1679,VALID,95,VALID,0.425781,
2009-10-02, 01:21:05,VALID,1008.8,VALID,0,VALID,94.0332,VALID,0,VALID,23.1679,VALID,92,VALID,0.543359,
2009-10-02, 01:22:05,VALID,1008.79,VALID,0,VALID,94.0255,VALID,0,VALID,23.1892,VALID,64,VALID,0.4125,
2009-10-02, 01:23:05,VALID,1008.77,VALID,0,VALID,94.0332,VALID,0,VALID,23.1679,VALID,83,VALID,0.362891,
2009-10-02, 01:24:05,VALID,1008.78,VALID,0,VALID,94.0484,VALID,0,VALID,23.1892,VALID,78,VALID,0,
2009-10-02, 01:25:05,VALID,1008.79,VALID,0,VALID,94.056,VALID,0,VALID,23.1485,VALID,66,VALID,0.882031,
2009-10-02, 01:26:05,VALID,1008.79,VALID,0,VALID,94.0408,VALID,0,VALID,23.1307,VALID,73,VALID,0.775,
2009-10-02, 01:27:05,VALID,1008.78,VALID,0,VALID,94.0332,VALID,0,VALID,23.1095,VALID,74,VALID,0.869141,
2009-10-02, 01:28:05,VALID,1008.82,VALID,0,VALID,94.0332,VALID,0,VALID,23.1095,VALID,77,VALID,0.978906,
2009-10-02, 01:29:05,VALID,1008.81,VALID,0,VALID,94.0332,VALID,0,VALID,23.09,VALID,97,VALID,0.555078,
2009-10-02, 01:30:05,VALID,1008.81,VALID,0,VALID,94.0179,VALID,0,VALID,23.1307,VALID,77,VALID,0.681641,
2009-10-02, 01:31:05,VALID,1008.84,VALID,0,VALID,94.0179,VALID,0,VALID,23.1112,VALID,91,VALID,0.628906,
2009-10-02, 01:32:05,VALID,1008.84,VALID,0,VALID,94.0179,VALID,0,VALID,23.1112,VALID,91,VALID,0.555469,
2009-10-02, 01:33:05,VALID,1008.84,VALID,0,VALID,94.0255,VALID,0,VALID,23.09,VALID,93,VALID,0.432422,
2009-10-02, 01:34:05,VALID,1008.87,VALID,0,VALID,94.0103,VALID,0,VALID,23.1112,VALID,93,VALID,0.0160156,
2009-10-02, 01:35:05,VALID,1008.88,VALID,0,VALID,94.0255,VALID,0,VALID,23.09,VALID,93,VALID,0.410937,
2009-10-02, 01:36:05,VALID,1008.87,VALID,0,VALID,94.0179,VALID,0,VALID,23.09,VALID,88,VALID,0.352344,
2009-10-02, 01:37:05,VALID,1008.86,VALID,0,VALID,94.0255,VALID,0,VALID,23.09,VALID,90,VALID,0.501562,
2009-10-02, 01:38:05,VALID,1008.88,VALID,0,VALID,94.0408,VALID,0,VALID,23.0705,VALID,90,VALID,0.148047,
2009-10-02, 01:39:05,VALID,1008.84,VALID,0,VALID,94.0408,VALID,0,VALID,23.0705,VALID,89,VALID,0,
2009-10-02, 01:40:05,VALID,1008.85,VALID,0,VALID,94.0255,VALID,0,VALID,23.0705,VALID,89,VALID,0.197656,
2009-10-02, 01:41:05,VALID,1008.83,VALID,0,VALID,94.0103,VALID,0,VALID,23.0723,VALID,90,VALID,0.510938,
2009-10-02, 01:42:05,VALID,1008.84,VALID,0,VALID,94.0408,VALID,0,VALID,23.0511,VALID,89,VALID,0.503906,
2009-10-02, 01:43:05,VALID,1008.81,VALID,0,VALID,94.0027,VALID,0,VALID,23.0511,VALID,90,VALID,0.523828,
2009-10-02, 01:44:05,VALID,1008.84,VALID,0,VALID,94.0255,VALID,0,VALID,23.0511,VALID,89,VALID,0.740625,
2009-10-02, 01:45:05,VALID,1008.84,VALID,0,VALID,94.0255,VALID,0,VALID,23.0511,VALID,88,VALID,0.707422,
2009-10-02, 01:46:05,VALID,1008.83,VALID,0,VALID,94.0332,VALID,0,VALID,23.0511,VALID,81,VALID,0.742969,
2009-10-02, 01:47:05,VALID,1008.84,VALID,0,VALID,94.0332,VALID,0,VALID,23.0723,VALID,57,VALID,0.698047,
2009-10-02, 01:48:05,VALID,1008.84,VALID,0,VALID,94.0332,VALID,0,VALID,23.0723,VALID,77,VALID,1.01563,
2009-10-02, 01:49:05,VALID,1008.81,VALID,0,VALID,94.0332,VALID,0,VALID,23.0723,VALID,56,VALID,0.754297,
2009-10-02, 01:50:05,VALID,1008.78,VALID,0,VALID,94.0332,VALID,0,VALID,23.0511,VALID,98,VALID,0.701172,
2009-10-02, 01:51:05,VALID,1008.74,VALID,0,VALID,94.0484,VALID,0,VALID,23.0528,VALID,86,VALID,0.844531,
2009-10-02, 01:52:05,VALID,1008.72,VALID,0,VALID,94.0332,VALID,0,VALID,23.0723,VALID,85,VALID,0.896484,
2009-10-02, 01:53:05,VALID,1008.7,VALID,0,VALID,94.0255,VALID,0,VALID,23.0316,VALID,101,VALID,0.889844,
2009-10-02, 01:54:05,VALID,1008.68,VALID,0,VALID,94.0484,VALID,0,VALID,23.0121,VALID,97,VALID,0.640234,
2009-10-02, 01:55:05,VALID,1008.69,VALID,0,VALID,94.0332,VALID,0,VALID,23.0316,VALID,103,VALID,0.660937,
2009-10-02, 01:56:05,VALID,1008.69,VALID,0,VALID,94.0332,VALID,0,VALID,23.0316,VALID,126,VALID,0.61875,
2009-10-02, 01:57:05,VALID,1008.7,VALID,0,VALID,94.0179,VALID,0,VALID,23.0316,VALID,125,VALID,0.778125,
2009-10-02, 01:58:05,VALID,1008.71,VALID,0,VALID,94.0332,VALID,0,VALID,23.0723,VALID,123,VALID,0.814844,
2009-10-02, 01:59:05,VALID,1008.67,VALID,0,VALID,94.0332,VALID,0,VALID,23.0511,VALID,119,VALID,0.184766,
2009-10-02, 02:00:05,VALID,1008.68,VALID,0,VALID,94.0484,VALID,0,VALID,23.0511,VALID,105,VALID,0.386719,
2009-10-02, 02:01:05,VALID,1008.67,VALID,0,VALID,94.0484,VALID,0,VALID,23.0511,VALID,86,VALID,0.240625,
2009-10-02, 02:02:05,VALID,1008.65,VALID,0,VALID,94.0484,VALID,0,VALID,23.0511,VALID,75,VALID,0.742188,
2009-10-02, 02:03:05,VALID,1008.66,VALID,0,VALID,94.0713,VALID,0,VALID,23.0511,VALID,69,VALID,0.615625,
2009-10-02, 02:04:05,VALID,1008.63,VALID,0,VALID,94.0637,VALID,0,VALID,23.0511,VALID,71,VALID,0.848828,
2009-10-02, 02:05:05,VALID,1008.6,VALID,0,VALID,94.0637,VALID,0,VALID,23.0723,VALID,84,VALID,0.662891,
2009-10-02, 02:06:05,VALID,1008.62,VALID,0,VALID,94.0789,VALID,0,VALID,23.0511,VALID,84,VALID,0.201953,
2009-10-02, 02:07:05,VALID,1008.59,VALID,0,VALID,94.0637,VALID,0,VALID,23.0316,VALID,84,VALID,0.294922,
2009-10-02, 02:08:05,VALID,1008.62,VALID,0,VALID,94.0713,VALID,0,VALID,23.0723,VALID,146,VALID,0.748047,
2009-10-02, 02:09:05,VALID,1008.63,VALID,0,VALID,94.0865,VALID,0,VALID,23.0316,VALID,154,VALID,0.883984,
2009-10-02, 02:10:05,VALID,1008.64,VALID,0,VALID,94.0713,VALID,0,VALID,23.0121,VALID,134,VALID,0.578906,
2009-10-02, 02:11:05,VALID,1008.62,VALID,0,VALID,94.0637,VALID,0,VALID,23.0316,VALID,123,VALID,0.970312,
2009-10-02, 02:12:05,VALID,1008.61,VALID,0,VALID,94.0637,VALID,0,VALID,23.0333,VALID,122,VALID,0.776563,
2009-10-02, 02:13:05,VALID,1008.6,VALID,0,VALID,94.0713,VALID,0,VALID,23.0316,VALID,114,VALID,0.738672,
2009-10-02, 02:14:05,VALID,1008.63,VALID,0,VALID,94.0637,VALID,0,VALID,23.0723,VALID,100,VALID,1.36445,
2009-10-02, 02:15:05,VALID,1008.63,VALID,0,VALID,94.0865,VALID,0,VALID,23.0723,VALID,111,VALID,1.31133,
2009-10-02, 02:16:05,VALID,1008.64,VALID,0,VALID,94.0789,VALID,0,VALID,23.0316,VALID,107,VALID,1.09883,
2009-10-02, 02:17:05,VALID,1008.63,VALID,0,VALID,94.0789,VALID,0,VALID,23.0723,VALID,117,VALID,1.58438,
2009-10-02, 02:18:05,VALID,1008.64,VALID,0,VALID,94.0713,VALID,0,VALID,23.0723,VALID,106,VALID,1.32187,
2009-10-02, 02:19:05,VALID,1008.66,VALID,0,VALID,94.0484,VALID,0,VALID,23.0918,VALID,116,VALID,0.682031,
2009-10-02, 02:20:05,VALID,1008.64,VALID,0,VALID,94.0713,VALID,0,VALID,23.0705,VALID,107,VALID,1.25977,
2009-10-02, 02:21:05,VALID,1008.68,VALID,0,VALID,94.0484,VALID,0,VALID,23.0705,VALID,92,VALID,1.15937,
2009-10-02, 02:22:05,VALID,1008.72,VALID,0,VALID,94.0713,VALID,0,VALID,23.0705,VALID,104,VALID,0.812109,
2009-10-02, 02:23:05,VALID,1008.75,VALID,0,VALID,94.056,VALID,0,VALID,23.09,VALID,81,VALID,0.850781,
2009-10-02, 02:24:05,VALID,1008.76,VALID,0,VALID,94.0637,VALID,0,VALID,23.0705,VALID,103,VALID,1.09961,
2009-10-02, 02:25:05,VALID,1008.73,VALID,0,VALID,94.056,VALID,0,VALID,23.0705,VALID,88,VALID,1.20938,
2009-10-02, 02:26:05,VALID,1008.74,VALID,0,VALID,94.0637,VALID,0,VALID,23.0918,VALID,105,VALID,0.967969,
2009-10-02, 02:27:05,VALID,1008.74,VALID,0,VALID,94.0865,VALID,0,VALID,23.0723,VALID,100,VALID,1.11367,
2009-10-02, 02:28:05,VALID,1008.76,VALID,0.5,VALID,94.0484,VALID,0,VALID,23.0723,VALID,106,VALID,1.56406,
2009-10-02, 02:29:05,VALID,1008.77,VALID,0,VALID,94.0408,VALID,0,VALID,23.0705,VALID,97,VALID,1.36836,
2009-10-02, 02:30:05,VALID,1008.8,VALID,0,VALID,94.056,VALID,0,VALID,23.0918,VALID,114,VALID,1.31016,
2009-10-02, 02:31:05,VALID,1008.81,VALID,0,VALID,94.0332,VALID,0,VALID,23.09,VALID,124,VALID,1.3125,
2009-10-02, 02:32:05,VALID,1008.82,VALID,0,VALID,94.0713,VALID,0,VALID,23.0918,VALID,91,VALID,1.71289,
2009-10-02, 02:33:04,VALID,1008.83,VALID,0,VALID,94.0484,VALID,0,VALID,23.1112,VALID,121,VALID,0.903516,
2009-10-02, 02:34:04,VALID,1008.8,VALID,0,VALID,94.0255,VALID,0,VALID,23.1112,VALID,126,VALID,1.15313,
2009-10-02, 02:35:04,VALID,1008.82,VALID,0,VALID,94.0332,VALID,0,VALID,23.1112,VALID,119,VALID,1.31914,
2009-10-02, 02:36:04,VALID,1008.78,VALID,0,VALID,94.0179,VALID,0,VALID,23.0918,VALID,120,VALID,1.37109,
2009-10-02, 02:37:04,VALID,1008.81,VALID,0,VALID,94.0179,VALID,0,VALID,23.09,VALID,123,VALID,1.08633,
2009-10-02, 02:38:04,VALID,1008.82,VALID,0,VALID,94.0103,VALID,0,VALID,23.0705,VALID,130,VALID,1.53008,
2009-10-02, 02:39:04,VALID,1008.84,VALID,0,VALID,94.0027,VALID,0,VALID,23.0705,VALID,124,VALID,0.928125,
2009-10-02, 02:40:04,VALID,1008.81,VALID,0,VALID,94.0103,VALID,0,VALID,23.0918,VALID,132,VALID,1.01094,
2009-10-02, 02:41:04,VALID,1008.83,VALID,0,VALID,94.0027,VALID,0,VALID,23.0705,VALID,129,VALID,1.25508,
2009-10-02, 02:42:04,VALID,1008.82,VALID,0,VALID,94.0179,VALID,0,VALID,23.0705,VALID,126,VALID,0.926562,
2009-10-02, 02:43:04,VALID,1008.8,VALID,0,VALID,93.995,VALID,0,VALID,23.0723,VALID,114,VALID,1.14219,
2009-10-02, 02:44:04,VALID,1008.78,VALID,0,VALID,93.9874,VALID,0,VALID,23.0918,VALID,106,VALID,1.05586,
2009-10-02, 02:45:04,VALID,1008.82,VALID,0,VALID,94.0103,VALID,0,VALID,23.0723,VALID,94,VALID,1.51953,
2009-10-02, 02:46:04,VALID,1008.82,VALID,0,VALID,93.995,VALID,0,VALID,23.0723,VALID,107,VALID,1.67539,
2009-10-02, 02:47:04,VALID,1008.8,VALID,0,VALID,93.995,VALID,0,VALID,23.0918,VALID,107,VALID,1.27461,
2009-10-02, 02:48:04,VALID,1008.83,VALID,0,VALID,93.995,VALID,0,VALID,23.0918,VALID,110,VALID,1.27695,
2009-10-02, 02:49:04,VALID,1008.82,VALID,0,VALID,93.995,VALID,0,VALID,23.1112,VALID,115,VALID,0.947266,
2009-10-02, 02:50:04,VALID,1008.8,VALID,0,VALID,93.9874,VALID,0,VALID,23.09,VALID,111,VALID,0.951563,
2009-10-02, 02:51:04,VALID,1008.79,VALID,0,VALID,93.9874,VALID,0,VALID,23.1112,VALID,114,VALID,1.17656,
2009-10-02, 02:52:04,VALID,1008.82,VALID,0,VALID,93.995,VALID,0,VALID,23.1112,VALID,102,VALID,1.40469,
2009-10-02, 02:53:04,VALID,1008.79,VALID,0,VALID,94.0027,VALID,0,VALID,23.1095,VALID,100,VALID,1.18047,
2009-10-02, 02:54:04,VALID,1008.81,VALID,0,VALID,93.9798,VALID,0,VALID,23.1112,VALID,102,VALID,0.993359,
2009-10-02, 02:55:04,VALID,1008.82,VALID,0,VALID,93.9874,VALID,0,VALID,23.1307,VALID,118,VALID,0.818359,
2009-10-02, 02:56:04,VALID,1008.84,VALID,0,VALID,94.0027,VALID,0,VALID,23.1307,VALID,89,VALID,1.17461,
2009-10-02, 02:57:04,VALID,1008.86,VALID,0,VALID,94.0103,VALID,0,VALID,23.1307,VALID,104,VALID,1.44297,
2009-10-02, 02:58:04,VALID,1008.89,VALID,0,VALID,94.0027,VALID,0,VALID,23.1112,VALID,107,VALID,0.703906,
2009-10-02, 02:59:04,VALID,1008.89,VALID,0,VALID,94.0255,VALID,0,VALID,23.1307,VALID,109,VALID,2.0707,
2009-10-02, 03:00:04,VALID,1008.92,VALID,0,VALID,93.9798,VALID,0,VALID,23.1112,VALID,95,VALID,1.07734,
2009-10-02, 03:01:04,VALID,1008.92,VALID,0,VALID,93.9874,VALID,0,VALID,23.1095,VALID,70,VALID,0.764063,
2009-10-02, 03:02:04,VALID,1008.93,VALID,0,VALID,94.0103,VALID,0,VALID,23.1095,VALID,95,VALID,1.21055,
2009-10-02, 03:03:04,VALID,1008.94,VALID,0,VALID,94.0027,VALID,0,VALID,23.129,VALID,88,VALID,1.13828,
2009-10-02, 03:04:04,VALID,1008.92,VALID,0,VALID,94.0179,VALID,0,VALID,23.1307,VALID,114,VALID,0.708203,
2009-10-02, 03:05:04,VALID,1008.91,VALID,0,VALID,94.0332,VALID,0,VALID,23.1307,VALID,110,VALID,1.3,
2009-10-02, 03:06:04,VALID,1008.91,VALID,0,VALID,94.0332,VALID,0,VALID,23.1307,VALID,88,VALID,1.12773,
2009-10-02, 03:07:04,VALID,1008.89,VALID,0,VALID,93.995,VALID,0,VALID,23.1307,VALID,85,VALID,1.04609,
2009-10-02, 03:08:04,VALID,1008.89,VALID,0,VALID,94.0255,VALID,0,VALID,23.1307,VALID,81,VALID,1.25859,
2009-10-02, 03:09:04,VALID,1008.91,VALID,0,VALID,94.0332,VALID,0,VALID,23.129,VALID,90,VALID,1.2875,
2009-10-02, 03:10:04,VALID,1008.87,VALID,0,VALID,94.0332,VALID,0,VALID,23.1307,VALID,93,VALID,1.29609,
2009-10-02, 03:11:04,VALID,1008.88,VALID,0,VALID,94.0484,VALID,0,VALID,23.1307,VALID,107,VALID,1.3375,
2009-10-02, 03:12:04,VALID,1008.9,VALID,0,VALID,94.0408,VALID,0,VALID,23.129,VALID,69,VALID,1.62617,
2009-10-02, 03:13:04,VALID,1008.92,VALID,0,VALID,94.056,VALID,0,VALID,23.1307,VALID,80,VALID,0.979297,
2009-10-02, 03:14:04,VALID,1008.94,VALID,0,VALID,94.0484,VALID,0,VALID,23.1307,VALID,81,VALID,1.4082,
2009-10-02, 03:15:04,VALID,1008.95,VALID,0,VALID,94.0408,VALID,0,VALID,23.1095,VALID,64,VALID,1.0957,
2009-10-02, 03:16:04,VALID,1008.97,VALID,0,VALID,94.0713,VALID,0,VALID,23.1307,VALID,107,VALID,2.2,
2009-10-02, 03:17:04,VALID,1008.96,VALID,0,VALID,94.056,VALID,0,VALID,23.1307,VALID,117,VALID,1.9043,
2009-10-02, 03:18:04,VALID,1008.96,VALID,0,VALID,94.0484,VALID,0,VALID,23.1095,VALID,81,VALID,0.853516,
2009-10-02, 03:19:04,VALID,1008.94,VALID,0,VALID,94.0637,VALID,0,VALID,23.1095,VALID,101,VALID,1.50977,
2009-10-02, 03:20:04,VALID,1008.95,VALID,0,VALID,94.0789,VALID,0,VALID,23.1095,VALID,81,VALID,1.9043,
2009-10-02, 03:21:04,VALID,1008.92,VALID,0,VALID,94.0789,VALID,0,VALID,23.1307,VALID,94,VALID,1.75078,
2009-10-02, 03:22:04,VALID,1008.93,VALID,0,VALID,94.0865,VALID,0,VALID,23.1112,VALID,101,VALID,1.42383,
2009-10-02, 03:23:04,VALID,1008.97,VALID,0,VALID,94.0408,VALID,0,VALID,23.1095,VALID,91,VALID,1.04453,
2009-10-02, 03:24:04,VALID,1008.93,VALID,0,VALID,94.0637,VALID,0,VALID,23.1307,VALID,89,VALID,1.29297,
2009-10-02, 03:25:04,VALID,1008.94,VALID,0,VALID,94.0713,VALID,0,VALID,23.09,VALID,87,VALID,1.22656,
2009-10-02, 03:26:04,VALID,1008.96,VALID,0,VALID,94.0713,VALID,0,VALID,23.1307,VALID,97,VALID,1.65117,
2009-10-02, 03:27:04,VALID,1008.96,VALID,0,VALID,94.0789,VALID,0,VALID,23.1307,VALID,77,VALID,0.75625,
2009-10-02, 03:28:04,VALID,1008.96,VALID,0,VALID,94.056,VALID,0,VALID,23.1095,VALID,71,VALID,0.644531,
2009-10-02, 03:29:04,VALID,1008.95,VALID,0,VALID,94.0637,VALID,0,VALID,23.129,VALID,78,VALID,0.773438,
2009-10-02, 03:30:04,VALID,1008.94,VALID,0,VALID,94.0484,VALID,0,VALID,23.1502,VALID,84,VALID,1.37109,
2009-10-02, 03:31:04,VALID,1008.93,VALID,0,VALID,94.0865,VALID,0,VALID,23.129,VALID,107,VALID,0.873438,
2009-10-02, 03:32:04,VALID,1008.92,VALID,0,VALID,94.0637,VALID,0,VALID,23.1502,VALID,88,VALID,1.07148,
2009-10-02, 03:33:04,VALID,1008.93,VALID,0,VALID,94.0713,VALID,0,VALID,23.1502,VALID,79,VALID,1.33086,
2009-10-02, 03:34:04,VALID,1008.93,VALID,0,VALID,94.0713,VALID,0,VALID,23.1502,VALID,66,VALID,1.26641,
2009-10-02, 03:35:04,VALID,1008.92,VALID,0,VALID,94.0789,VALID,0,VALID,23.129,VALID,87,VALID,0.641406,
2009-10-02, 03:36:04,VALID,1008.93,VALID,0,VALID,94.0637,VALID,0,VALID,23.1502,VALID,77,VALID,0.578125,
2009-10-02, 03:37:04,VALID,1008.97,VALID,0,VALID,94.056,VALID,0,VALID,23.1679,VALID,84,VALID,0.0511719,
2009-10-02, 03:38:04,VALID,1008.99,VALID,0,VALID,94.0713,VALID,0,VALID,23.1892,VALID,75,VALID,0.553906,
2009-10-02, 03:39:04,VALID,1008.99,VALID,0,VALID,94.0865,VALID,0,VALID,23.1697,VALID,44,VALID,1.09063,
2009-10-02, 03:40:04,VALID,1009,VALID,0,VALID,94.0637,VALID,0,VALID,23.1892,VALID,94,VALID,1.08633,
2009-10-02, 03:41:04,VALID,1008.99,VALID,0,VALID,94.056,VALID,0,VALID,23.1892,VALID,82,VALID,1.05078,
2009-10-02, 03:42:04,VALID,1008.99,VALID,0,VALID,94.0713,VALID,0,VALID,23.1892,VALID,91,VALID,1.39531,
2009-10-02, 03:43:04,VALID,1008.99,VALID,0,VALID,94.0637,VALID,0,VALID,23.1892,VALID,87,VALID,1.56523,
2009-10-02, 03:44:04,VALID,1009,VALID,0,VALID,94.0637,VALID,0.105969,VALID,23.1874,VALID,78,VALID,1.22148,
2009-10-02, 03:45:04,VALID,1008.97,VALID,0,VALID,94.0637,VALID,0.105969,VALID,23.2069,VALID,95,VALID,1.57891,
2009-10-02, 03:46:04,VALID,1008.99,VALID,0,VALID,94.0865,VALID,0.105969,VALID,23.1874,VALID,93,VALID,1.07578,
2009-10-02, 03:47:04,VALID,1008.96,VALID,0,VALID,94.0484,VALID,0.105969,VALID,23.2069,VALID,94,VALID,1.06641,